Location: Plainartige
(45.6866°N, 1.7993°E)
Time: 02:14:00
(UTC+00:00)

RS-15 - Pass Details

Date: 28 June 2022
Orbit: 1881 x 2163 km, 64.8° (Epoch: 10 August)

Event Time Altitude Azimuth Distance (km) Brightness Sun altitude
Rises 22:42:20 0° 319° (NW) 5,693 11.7 -19.1°
Reaches altitude 10° 22:45:56 10° 323° (NW) 4,692 11.1 -19.2°
Maximum altitude 22:58:14 61° 44° (NE) 2,366 8.5 -19.8°
Drops below altitude 10° 23:10:07 10° 124° (ESE) 4,562 9.6 -20.3°
Enters shadow 23:10:31 - 124° (SE) 4,675 9.6 -20.3°
